#timestamp,LO_Frequency,Hit 
1502672415.9,286046999.8,N
1502672435.7,286047002.7,N
1502672455.6,286047000.1,N
1502672475.4,286047001.4,N
1502672495.2,286047005.2,N
1502672515.0,286047003.9,N
1502672516.0,286047003.9,N
1502672535.8,286047002.4,N
1502672555.6,286047000.1,N
1502672575.4,286047000.4,N
1502672595.3,286046999.3,N
1502672615.1,286046996.9,N
1502672635.8,286046996.5,N
1502672655.7,286046999.2,N
1502672675.5,286046999.5,N
1502672695.3,286047001.5,N
1502672715.2,286047004.4,N
1502672735.9,286046998.1,N
1502672755.7,286046995.4,N
1502672775.6,286046991.7,P
1502672795.4,286046987.8,N
1502672815.2,286046990.7,N
1502672835.1,286046991.3,N
1502672836.0,286046991.3,N
1502672855.8,286046988.9,N
1502672875.6,286046989.3,N
1502672895.5,286046989.8,N
1502672915.3,286046991.4,N
1502672935.1,286046990.2,N
1502672955.9,286046992.3,N
1502672975.7,286046991.5,N
1502672995.5,286046989.4,P
1502673015.4,286046996.5,P
1502673035.2,286046999.5,N
1502673055.0,286046997.2,N
1502673055.9,286046997.2,N
1502673075.8,286046997.0,N
1502673095.6,286046996.6,N
1502673115.4,286046999.1,N
1502673135.2,286046999.6,N
1502673155.1,286046999.1,N
1502673156.0,286046999.1,N
1502673175.8,286046996.8,N
1502673195.6,286046996.1,N
1502673215.5,286046995.2,N
1502673235.3,286046994.2,N
1502673255.1,286046997.4,N
1502673275.9,286047000.4,N
1502673295.7,286047000.7,N
1502673315.5,286047003.3,N
1502673335.4,286047008.9,N
1502673355.2,286047009.5,N
1502673375.0,286047007.3,N
1502673375.9,286047007.3,N
1502673395.8,286047007.6,N
1502673415.6,286047005.6,N
1502673435.4,286047007.3,N
1502673455.2,286047009.1,N
1502673475.1,286047007.5,N
1502673476.0,286047007.5,N
1502673495.8,286047007.5,N
1502673515.6,286047004.7,N
1502673535.5,286047007.1,N
1502673555.3,286047008.7,N
1502673575.1,286047010.6,N
1502673595.9,286047013.9,N
1502673615.7,286047011.8,N
1502673635.5,286047012.8,N
1502673655.4,286047013.9,N
1502673675.2,286047011.3,N
1502673695.0,286047015.5,N
1502673695.9,286047015.5,N
1502673715.8,286047013.3,N
1502673735.6,286047012.9,N
1502673755.4,286047012.3,N
1502673775.3,286047012.3,N
1502673795.1,286047015.6,P
1502673796.0,286047015.6,P
1502673815.8,286047007.2,N
1502673835.7,286047004.6,N
1502673855.5,286047006.6,N
1502673875.3,286047007.6,N
1502673895.2,286047003.1,N
1502673915.9,286047003.0,N
1502673935.7,286047004.7,N
1502673955.5,286047007.3,N
1502673975.4,286047005.2,N
1502673995.2,286047003.1,N
1502674015.0,286047003.3,N
1502674015.9,286047003.3,N
1502674035.8,286047007.0,N
1502674055.6,286047009.1,N
1502674075.4,286047007.4,N
1502674095.3,286047004.4,N
1502674115.1,286047001.9,N
1502674135.8,286047005.6,N
1502674155.7,286047001.4,N
1502674175.5,286047001.8,N
1502674195.3,286046998.8,N
1502674215.2,286046998.2,N
1502674235.9,286047002.5,N
1502674255.7,286047004.3,N
1502674275.6,286047003.6,N
1502674295.4,286047003.5,N
1502674315.2,286047001.5,N
1502674335.0,286047002.4,N
1502674335.9,286047002.4,N
1502674355.8,286047000.9,N
1502674375.6,286047001.5,N
1502674395.4,286047000.1,N
1502674415.3,286047001.4,N
1502674435.1,286047001.9,N
1502674455.8,286047003.4,N
1502674475.7,286047004.4,N
1502674495.5,286047003.9,N
1502674515.3,286047002.3,N
1502674535.2,286047004.2,N
1502674555.9,286047004.1,N
1502674575.7,286047004.3,N
1502674595.6,286047004.1,N
1502674615.4,286047004.6,N
1502674635.2,286047001.6,N
1502674655.0,286047003.8,N
1502674656.0,286047003.8,N
1502674675.8,286047000.1,N
1502674695.6,286047000.2,N
1502674715.4,286046999.4,N
1502674735.3,286047002.0,N
1502674755.1,286047005.5,P
1502674775.9,286047007.5,P
1502674795.7,286047002.9,N
1502674815.5,286047004.0,N
1502674835.3,286047001.9,N
1502674855.2,286047000.1,N
1502674875.0,286046998.5,N
1502674875.9,286046998.5,N
1502674895.7,286046999.2,N
1502674915.6,286046996.9,N
1502674935.4,286046997.8,N
1502674955.2,286046996.2,N
1502674975.1,286046996.0,N
1502674976.0,286046996.0,N
1502674995.8,286046996.4,N
1502675015.6,286046996.4,N
1502675035.5,286046993.4,N
1502675055.3,286046992.4,N
1502675075.1,286046991.7,N
1502675095.8,286046994.8,N
1502675115.7,286046992.8,N
1502675135.5,286046992.3,N
1502675155.3,286046990.1,N
1502675175.2,286046990.4,N
1502675195.9,286046989.4,N
1502675215.7,286046988.4,N
1502675235.6,286046991.4,N
1502675255.4,286046989.3,N
1502675275.2,286046991.0,N
1502675295.1,286046992.7,N
1502675296.0,286046992.7,N
1502675315.8,286046991.4,N
1502675335.6,286046991.6,N
1502675355.5,286046984.9,P
1502675375.3,286046989.0,N
1502675395.1,286046990.5,N
1502675415.9,286046990.8,N
1502675435.7,286046991.1,N
1502675455.5,286046994.1,N
1502675475.4,286046996.2,N
1502675495.2,286046998.6,N
1502675515.0,286046994.9,N
1502675515.9,286046994.9,N
1502675535.7,286046995.8,N
1502675555.6,286046995.4,N
1502675575.4,286046998.4,N
1502675595.2,286047001.7,N
1502675615.1,286047005.2,N
1502675616.0,286047005.2,N
1502675635.8,286047003.7,N
1502675655.6,286047006.0,N
1502675675.5,286047006.6,N
1502675695.3,286047009.1,N
1502675715.1,286047006.1,N
1502675735.9,286047006.9,N
1502675755.7,286047003.6,N
1502675775.5,286047003.7,N
1502675795.4,286047005.0,N
1502675815.2,286047006.9,N
1502675835.0,286047007.9,N
1502675835.9,286047007.9,N
1502675855.8,286047007.1,N
1502675875.6,286047005.2,N
1502675895.4,286047007.5,N
1502675915.2,286047007.4,N
1502675935.1,286047009.1,N
1502675936.0,286047009.1,N
1502675955.8,286047008.4,N
1502675975.6,286047008.0,N
1502675995.5,286047011.8,N
